KH2PM Weather Reports


Display with metric or nautical units.
time (UTC)temp
F
wind
direction
speed
MPH
gust
MPH
rain 1hr
in
rain 24hr
in
rain mn
in
humidity
%
barometer
mb
20260510173003 84 87 1.0 6.0 0.00 0.00 0.00 39 1015.5
20260510172504 83 244 3.0 6.0 0.00 0.00 0.00 43 1015.5
20260510171504 83 331 1.0 3.0 0.00 0.00 0.00 42 1015.5
20260510171003 83 217 2.0 3.0 0.00 0.00 0.00 47 1015.5
20260510170504 83 16 2.0 6.0 0.00 0.00 0.00 42 1015.6
20260510170003 83 31 2.0 5.0 0.00 0.00 0.00 44 1015.6
20260510165504 83 264 2.0 3.0 0.00 0.00 0.00 45 1015.6
20260510165004 82 342 3.0 6.0 0.00 0.00 0.00 45 1015.6
20260510164504 83 106 2.0 6.0 0.00 0.00 0.00 46 1015.6
20260510164003 83 49 2.0 8.0 0.00 0.00 0.00 47 1015.7
20260510163504 83 133 2.0 3.0 0.00 0.00 0.00 49 1015.7
20260510163004 82 339 2.0 5.0 0.00 0.00 0.00 48 1015.8
20260510162504 82 12 3.0 5.0 0.00 0.00 0.00 46 1015.8
20260510162004 82 27 3.0 5.0 0.00 0.00 0.00 45 1015.9
20260510161504 82 357 3.0 9.0 0.00 0.00 0.00 47 1015.9
20260510160503 81 219 3.0 5.0 0.00 0.00 0.00 54 1016.0
20260510160003 80 144 2.0 5.0 0.00 0.00 0.00 53 1016.0
20260510155504 80 71 2.0 3.0 0.00 0.00 0.00 51 1016.1
20260510155004 80 294 2.0 6.0 0.00 0.00 0.00 52 1016.2
20260510154503 80 359 3.0 3.0 0.00 0.00 0.00 52 1016.2
20260510154004 79 45 2.0 3.0 0.00 0.00 0.00 52 1016.2
20260510153503 79 351 3.0 8.0 0.00 0.00 0.00 53 1016.2
20260510152504 80 54 1.0 6.0 0.00 0.00 0.00 52 1016.3
20260510151503 78 121 1.0 6.0 0.00 0.00 0.00 56 1016.2
20260510151004 78 154 2.0 5.0 0.00 0.00 0.00 59 1016.2
20260510150504 77 42 4.0 8.0 0.00 0.00 0.00 61 1016.1
20260510150004 77 12 2.0 5.0 0.00 0.00 0.00 60 1016.1
20260510145503 77 332 2.0 3.0 0.00 0.00 0.00 62 1016.1
20260510145004 76 153 1.0 3.0 0.00 0.00 0.00 65 1016.1
20260510144504 76 8 3.0 5.0 0.00 0.00 0.00 65 1016.1
20260510144004 76 3 3.0 6.0 0.00 0.00 0.00 63 1016.1
20260510143504 76 52 2.0 5.0 0.00 0.00 0.00 63 1016.0
20260510143004 76 341 2.0 7.0 0.00 0.00 0.00 65 1016.0
20260510142004 75 355 0.0 2.0 0.00 0.00 0.00 67 1016.0
20260510141504 74 241 1.0 3.0 0.00 0.00 0.00 71 1015.9
20260510141003 74 207 2.0 5.0 0.00 0.00 0.00 70 1016.1
20260510140504 74 294 2.0 3.0 0.00 0.00 0.00 70 1016.1
20260510140004 74 320 2.0 3.0 0.00 0.00 0.00 71 1016.1
20260510135504 73 337 2.0 3.0 0.00 0.00 0.00 73 1016.0
20260510134504 74 314 2.0 5.0 0.00 0.00 0.00 71 1016.0
20260510134004 74 208 2.0 6.0 0.00 0.00 0.00 70 1015.9
20260510133504 73 350 0.0 3.0 0.00 0.00 0.00 75 1015.9
20260510133004 73 287 1.0 3.0 0.00 0.00 0.00 78 1016.0
20260510132504 72 260 1.0 3.0 0.00 0.00 0.00 75 1015.9
20260510131004 71 75 1.0 2.0 0.00 0.00 0.00 81 1015.8
20260510130004 70 332 1.0 3.0 0.00 0.00 0.00 84 1015.8
20260510125004 69 242 1.0 3.0 0.00 0.00 0.00 85 1015.6
20260510124503 69 258 1.0 3.0 0.00 0.00 0.00 87 1015.6
20260510124004 68 341 1.0 3.0 0.00 0.00 0.00 88 1015.6
20260510122509 66 322 1.0 6.0 0.00 0.00 0.00 92 1015.4
20260510122004 66 352 2.0 3.0 0.00 0.00 0.00 92 1015.4
20260510121504 65 321 1.0 3.0 0.00 0.00 0.00 93 1015.3
20260510121003 65 126 1.0 3.0 0.00 0.00 0.00 94 1015.3
20260510120504 65 304 0.0 2.0 0.00 0.00 0.00 96 1015.2
20260510120004 65 282 0.0 2.0 0.00 0.00 0.00 96 1015.3
20260510115503 65 274 0.0 0.0 0.00 0.00 0.00 97 1015.2
20260510114504 64 268 0.0 0.0 0.00 0.00 0.00 97 1015.1
20260510114004 63 268 0.0 0.0 0.00 0.00 0.00 96 1015.1
20260510113504 62 132 0.0 0.0 0.00 0.00 0.00 96 1015.0
20260510113004 62 132 0.0 0.0 0.00 0.00 0.00 96 1014.9
20260510111504 61 132 0.0 0.0 0.00 0.00 0.00 96 1014.5
20260510111004 60 132 0.0 0.0 0.00 0.00 0.00 96 1014.5
20260510110504 60 132 0.0 0.0 0.00 0.00 0.00 95 1014.4
20260510110005 60 132 0.0 0.0 0.00 0.00 0.00 95 1014.4
20260510105004 60 132 0.0 0.0 0.00 0.00 0.00 95 1014.3
20260510104503 60 132 0.0 0.0 0.00 0.00 0.00 95 1014.2
20260510103504 60 132 0.0 0.0 0.00 0.00 0.00 95 1014.1
20260510103004 60 132 0.0 0.0 0.00 0.00 0.00 95 1014.0
20260510102504 60 132 0.0 0.0 0.00 0.00 0.00 95 1013.9
20260510102003 60 132 0.0 0.0 0.00 0.00 0.00 95 1013.9
20260510101504 60 132 0.0 0.0 0.00 0.00 0.00 95 1013.8
20260510101004 60 132 0.0 0.0 0.00 0.00 0.00 95 1013.8
20260510100503 60 132 0.0 0.0 0.00 0.00 0.00 95 1013.7
20260510095004 60 132 0.0 0.0 0.00 0.00 0.00 95 1013.6
20260510094503 60 132 0.0 0.0 0.00 0.00 0.00 95 1013.6
20260510094003 60 132 0.0 0.0 0.00 0.00 0.00 95 1013.6
20260510093504 60 132 0.0 0.0 0.00 0.00 0.00 95 1013.6
20260510093004 61 132 0.0 0.0 0.00 0.00 0.00 95 1013.4
20260510092504 61 132 0.0 0.0 0.00 0.00 0.00 95 1013.3
20260510092004 61 171 0.0 0.0 0.00 0.00 0.00 95 1013.4
20260510091504 61 171 0.0 0.0 0.00 0.00 0.00 95 1013.2
20260510091004 61 142 0.0 0.0 0.00 0.00 0.00 95 1013.2
20260510090504 61 142 0.0 0.0 0.00 0.00 0.00 95 1013.1
20260510090004 61 142 0.0 0.0 0.00 0.00 0.00 95 1013.0
20260510085004 61 142 0.0 0.0 0.00 0.00 0.00 95 1012.9
20260510084504 61 142 0.0 0.0 0.00 0.00 0.00 95 1012.9
20260510084004 61 142 0.0 0.0 0.00 0.00 0.00 95 1012.8
20260510083504 61 142 0.0 0.0 0.00 0.00 0.00 95 1012.7
20260510083003 61 142 0.0 0.0 0.00 0.00 0.00 95 1012.6
20260510082503 61 142 0.0 0.0 0.00 0.00 0.00 95 1012.6
20260510081504 61 142 0.0 0.0 0.00 0.00 0.00 95 1012.7
20260510081005 61 142 0.0 0.0 0.00 0.00 0.00 95 1012.6
20260510080503 61 142 0.0 0.0 0.00 0.00 0.00 95 1012.7
20260510080003 61 142 0.0 0.0 0.00 0.00 0.00 95 1012.6
20260510075504 61 142 0.0 0.0 0.00 0.00 0.00 95 1012.6
20260510075003 61 142 0.0 0.0 0.00 0.00 0.00 95 1012.7
20260510074503 61 142 0.0 0.0 0.00 0.00 0.00 95 1012.6
20260510074003 61 142 0.0 0.0 0.00 0.00 0.00 95 1012.6
20260510073504 61 142 0.0 0.0 0.00 0.00 0.00 95 1012.6
20260510072503 61 142 0.0 0.0 0.00 0.00 0.00 95 1012.7
20260510072003 61 142 0.0 0.0 0.00 0.00 0.00 95 1012.5
20260510071503 61 142 0.0 0.0 0.00 0.00 0.00 95 1012.5
20260510071004 61 142 0.0 0.0 0.00 0.00 0.00 95 1012.5
20260510070504 61 142 0.0 0.0 0.00 0.00 0.00 95 1012.5
20260510070004 61 142 0.0 0.0 0.00 0.00 0.00 95 1012.4
20260510065503 61 142 0.0 0.0 0.00 0.00 0.00 95 1012.5
20260510065003 61 142 0.0 0.0 0.00 0.00 0.00 95 1012.6
20260510064004 61 142 0.0 0.0 0.00 0.00 0.00 94 1012.6
20260510063503 61 159 0.0 0.0 0.00 0.00 0.00 94 1012.7
20260510063003 61 159 0.0 0.0 0.00 0.00 0.00 94 1012.6
20260510062503 61 159 0.0 0.0 0.00 0.00 0.00 95 1012.5
20260510062004 61 159 0.0 0.0 0.00 0.00 0.00 95 1012.5
20260510061504 61 159 0.0 0.0 0.00 0.00 0.00 95 1012.5
20260510061003 61 159 0.0 0.0 0.00 0.00 0.00 95 1012.4
20260510060503 61 159 0.0 0.0 0.00 0.00 0.00 95 1012.6
20260510060003 61 159 0.0 0.0 0.00 0.00 0.00 95 1012.6
20260510055503 61 159 0.0 0.0 0.00 0.00 0.00 95 1012.6
20260510055003 61 159 0.0 1.0 0.00 0.00 0.00 94 1012.6
20260510054504 61 159 0.0 1.0 0.00 0.00 0.00 94 1012.7
20260510054004 61 159 0.0 1.0 0.00 0.00 0.00 94 1012.8
20260510053504 61 159 0.0 1.0 0.00 0.00 0.00 94 1012.9
20260510053004 61 159 0.0 1.0 0.00 0.00 0.00 94 1012.8
20260510052504 61 159 0.0 1.0 0.00 0.00 0.00 94 1012.8
20260510052004 61 159 0.0 1.0 0.00 0.00 0.00 94 1013.0
20260510051504 61 159 0.0 0.0 0.00 0.00 0.00 94 1013.0
20260510051004 61 159 0.0 1.0 0.00 0.00 0.00 94 1013.1
20260510050503 61 159 0.0 0.0 0.00 0.00 0.00 94 1013.2
20260510050006 62 159 0.0 1.0 0.00 0.00 0.00 94 1013.1
20260510045504 62 159 0.0 1.0 0.00 0.00 0.00 94 1013.0
20260510045004 62 159 0.0 1.0 0.00 0.00 0.00 94 1013.2
20260510044504 62 159 0.0 0.0 0.00 0.00 0.00 94 1013.2
20260510043504 62 159 0.0 0.0 0.00 0.00 0.00 94 1013.2
20260510043004 62 159 0.0 0.0 0.00 0.00 0.00 94 1013.2
20260510042504 62 159 0.0 1.0 0.00 0.00 0.00 94 1013.3
20260510042004 62 159 0.0 1.0 0.00 0.00 0.00 93 1013.3
20260510041503 62 159 0.0 1.0 0.00 0.00 0.00 93 1013.2
20260510041003 62 159 0.0 0.0 0.00 0.00 0.00 94 1013.1
20260510040504 62 159 0.0 0.0 0.00 0.00 0.00 94 1013.0
20260510040003 62 159 0.0 0.0 0.00 0.00 0.00 94 1013.1
20260510035004 62 159 0.0 0.0 0.00 0.00 0.00 94 1013.2
20260510034504 62 159 0.0 0.0 0.00 0.00 0.00 94 1013.0
20260510034004 62 159 0.0 0.0 0.00 0.00 0.00 94 1013.0
20260510033504 62 159 0.0 0.0 0.00 0.00 0.00 93 1013.1
20260510033004 62 159 0.0 0.0 0.00 0.00 0.00 93 1013.0
20260510032504 62 159 0.0 0.0 0.00 0.00 0.00 93 1013.0
20260510032004 62 159 0.0 0.0 0.00 0.00 0.00 93 1013.0
20260510031504 63 159 0.0 0.0 0.00 0.00 0.00 93 1013.0
20260510031004 63 159 0.0 0.0 0.00 0.00 0.00 93 1012.9
20260510030504 63 159 0.0 0.0 0.00 0.00 0.00 93 1012.9
20260510030004 63 159 0.0 0.0 0.00 0.00 0.00 93 1012.8
20260510025504 63 159 0.0 0.0 0.00 0.00 0.00 93 1012.8
20260510025003 63 159 0.0 0.0 0.00 0.00 0.00 93 1012.8
20260510023504 63 159 0.0 0.0 0.00 0.00 0.00 92 1012.7
20260510023004 63 159 0.0 0.0 0.00 0.00 0.00 91 1012.7
20260510022003 63 159 0.0 0.0 0.00 0.00 0.00 92 1012.7
20260510021504 63 159 0.0 0.0 0.00 0.00 0.00 92 1012.7
20260510021004 63 159 0.0 0.0 0.00 0.00 0.00 92 1012.7
20260510020504 63 159 0.0 0.0 0.00 0.00 0.00 91 1012.6
20260510020003 63 159 0.0 0.0 0.00 0.00 0.00 91 1012.4
20260510015004 64 159 0.0 0.0 0.00 0.00 0.00 91 1012.4
20260510014504 64 159 0.0 0.0 0.00 0.00 0.00 92 1012.4
20260510013504 64 159 0.0 0.0 0.00 0.00 0.00 91 1012.1
20260510013004 64 159 0.0 0.0 0.00 0.00 0.00 91 1011.8
20260510012504 64 159 0.0 0.0 0.00 0.00 0.00 90 1011.9
20260510012004 64 159 0.0 0.0 0.00 0.00 0.00 90 1011.8
20260510011504 65 159 0.0 0.0 0.00 0.00 0.00 89 1011.8
20260510011004 65 159 0.0 0.0 0.00 0.00 0.00 89 1011.7
20260510010503 65 159 0.0 0.0 0.00 0.00 0.00 88 1011.6
20260510010004 65 159 0.0 0.0 0.00 0.00 0.00 87 1011.6
20260510005504 66 159 0.0 0.0 0.00 0.00 0.00 87 1011.6
20260510005003 66 159 0.0 0.0 0.00 0.00 0.00 86 1011.6
20260510004504 66 159 0.0 0.0 0.00 0.00 0.00 85 1011.5
20260510004004 67 159 0.0 0.0 0.00 0.00 0.00 84 1011.6
20260510003504 67 159 0.0 0.0 0.00 0.00 0.00 85 1011.5
20260510003004 68 159 0.0 0.0 0.00 0.00 0.00 84 1011.5
20260510002503 68 159 0.0 0.0 0.00 0.00 0.00 82 1011.4
20260510002003 68 159 0.0 0.0 0.00 0.00 0.00 82 1011.5
20260510001504 69 159 0.0 0.0 0.00 0.00 0.00 82 1011.5
20260510000504 70 159 0.0 0.0 0.00 0.00 0.00 79 1011.6
20260510000003 71 159 0.0 0.0 0.00 0.00 0.00 78 1011.5
20260509235504 71 159 0.0 0.0 0.00 0.00 0.00 78 1011.5
20260509235004 71 159 0.0 0.0 0.00 0.00 0.00 77 1011.4
20260509234503 72 159 0.0 1.0 0.00 0.00 0.00 77 1011.3
20260509233504 72 159 0.0 2.0 0.00 0.00 0.00 75 1011.3
20260509232504 73 83 0.0 1.0 0.00 0.00 0.00 75 1011.1
20260509232004 73 83 0.0 0.0 0.00 0.00 0.00 74 1010.9
20260509231504 73 83 0.0 2.0 0.00 0.00 0.00 73 1010.8
20260509231004 74 242 1.0 2.0 0.00 0.00 0.00 74 1010.9
20260509230504 74 154 1.0 3.0 0.00 0.00 0.00 73 1010.9
20260509225504 74 220 2.0 3.0 0.00 0.00 0.00 72 1010.7
20260509224503 74 198 2.0 3.0 0.00 0.00 0.00 73 1010.7
20260509224004 74 189 0.0 3.0 0.00 0.00 0.00 73 1010.6
20260509223004 74 293 0.0 2.0 0.00 0.00 0.00 73 1010.8
20260509222003 74 271 0.0 2.0 0.00 0.00 0.00 73 1010.7
20260509221504 74 299 1.0 3.0 0.00 0.00 0.00 74 1010.7
20260509221004 74 279 1.0 2.0 0.00 0.00 0.00 73 1010.8
20260509220503 74 230 1.0 3.0 0.00 0.00 0.00 73 1010.8
20260509220004 74 145 1.0 2.0 0.00 0.00 0.00 72 1010.8
20260509215503 74 131 1.0 3.0 0.00 0.00 0.00 71 1010.9
20260509214003 75 220 1.0 3.0 0.00 0.00 0.00 71 1010.8
20260509213504 75 288 1.0 3.0 0.00 0.00 0.00 70 1010.7
20260509213004 74 243 1.0 3.0 0.00 0.00 0.00 72 1010.5
20260509212503 74 157 1.0 3.0 0.00 0.00 0.00 71 1010.6
20260509212003 74 192 1.0 3.0 0.00 0.00 0.00 71 1010.8
20260509211504 74 243 2.0 3.0 0.00 0.00 0.00 71 1010.7
20260509211004 74 189 1.0 3.0 0.00 0.00 0.00 70 1010.6
20260509210004 75 290 1.0 3.0 0.00 0.00 0.00 70 1010.7
20260509205504 75 251 2.0 3.0 0.00 0.00 0.00 70 1010.8
20260509205003 75 98 1.0 3.0 0.00 0.00 0.00 71 1010.6
20260509204503 74 173 3.0 5.0 0.00 0.00 0.00 69 1010.5
20260509203503 74 40 1.0 3.0 0.00 0.00 0.00 71 1010.6
20260509203003 74 227 1.0 3.0 0.00 0.00 0.00 72 1010.8
20260509202504 73 234 1.0 3.0 0.00 0.00 0.00 71 1010.6
20260509202004 73 228 3.0 5.0 0.00 0.00 0.00 71 1010.5
20260509201503 73 157 3.0 6.0 0.00 0.00 0.00 71 1010.7
20260509201003 73 229 2.0 6.0 0.00 0.00 0.00 72 1010.9
20260509200504 73 214 1.0 7.0 0.00 0.00 0.00 71 1010.9
20260509200003 73 280 2.0 3.0 0.00 0.00 0.00 71 1010.9
20260509195503 73 91 3.0 5.0 0.00 0.00 0.00 71 1010.9
20260509195003 73 140 1.0 3.0 0.00 0.00 0.00 72 1011.0
20260509193504 73 182 1.0 3.0 0.00 0.00 0.00 71 1011.0
20260509193003 73 282 2.0 5.0 0.00 0.00 0.00 70 1011.2
20260509192504 73 222 3.0 7.0 0.00 0.00 0.00 69 1011.3
20260509191004 74 146 1.0 3.0 0.00 0.00 0.00 69 1011.4
20260509190004 74 188 1.0 5.0 0.00 0.00 0.00 70 1011.3
20260509185003 75 127 2.0 6.0 0.00 0.00 0.00 65 1011.2
20260509184004 74 149 2.0 5.0 0.00 0.00 0.00 72 1011.3
20260509183504 72 187 0.0 3.0 0.00 0.00 0.00 71 1011.4
20260509182504 72 140 2.0 3.0 0.00 0.00 0.00 70 1011.5
20260509182003 72 119 2.0 3.0 0.00 0.00 0.00 70 1011.5
20260509181504 72 202 1.0 3.0 0.00 0.00 0.00 70 1011.6
20260509181004 72 153 2.0 5.0 0.00 0.00 0.00 69 1011.6
20260509180504 73 147 2.0 6.0 0.00 0.00 0.00 68 1011.7
20260509180004 74 162 4.0 7.0 0.00 0.00 0.00 65 1011.9
20260509175504 74 170 2.0 6.0 0.00 0.00 0.00 67 1012.0
20260509175004 74 186 2.0 6.0 0.00 0.00 0.00 66 1012.0
20260509173503 72 268 2.0 3.0 0.00 0.00 0.00 69 1012.3